SIRIUSSAT-1 (43595 NORAD) Tracking and Keplerian Element Data

This shows tracking and keplerian element data for the satellite.

Feedback or suggestion? Click here.




ElementValue
Catalog43595
NameSIRIUSSAT-1
Epoch Orbit13278
Epoch Day344.55055662
Epoch Year2020
RAAN97.6693
Inclination51.6588
Eccentricity0.0009437
Argument of Perigee42.2825
Mean Anonmoly52.9592
Mean Motion16.3999878
Decay Rate0.07916525
L11 43595U 98067PG 20344.55055662 .07916525 12514-4 56251-3 0 9997
L22 43595 51.6588 97.6693 0009437 42.2825 52.9592 16.39998780132780



Live tracking and technical data element details for SIRIUSSAT-1 (NORAD 43595). SIRIUSSAT-1 can be tracked NOW for your location showing map with azimuth and elevation plus other details from your city location.







IsCatalogInMostPopularTable: catalog: 43595, numindb: 583
Update: records affected: 1



GetName: 43595 SIRIUSSAT-1

Hit Count: updated at: Thu, 23 Jan 2025 16:37:02 GMT